Flag for United Kingdom Weather past 2 weeks in St Helens, England, United Kingdom

46 °F

Sprinkles. Passing clouds.

Feels Like: 37 °F
Forecast: N/A
Wind: 31 mph from West

Location: Liverpool Airport

Current Time: Nov 29, 2015 at 8:40:26 PM

Latest Report: Nov 29, 2015 at 7:50 PM

Visibility: N/A

Pressure: 29.80 "Hg

Humidity: 71%

Dew point: 37 °F

Location of St HelensLocation

Historic Weather in St Helens — Graph


St Helens temperature yesterday

Maximum temperature yesterday: 48 °F (at 2:20 PM)
Minimum temperature yesterday: 41 °F (at 4:20 AM)
Average temperature yesterday: 45 °F

Past Weeks' High & Low Weather Summary

High61 °F (Nov 14, 9:20 PM)100% (Nov 17, 12:20 AM)30.24 "Hg (Nov 17, 12:20 AM)
Low32 °F (Nov 23, 5:20 AM)49% (Nov 21, 1:20 PM)29.24 "Hg (Nov 17, 2:50 PM)
Average48 °F85%29.78 "Hg
* Reported Nov 14 7:20 PM — Nov 29 7:20 PM, St Helens, Weather by CustomWeather, © 2015

Note: Actual official high and low records may vary slightly from our data, if they occured in-between our weather recording intervals... More about our weather records


St Helens weather history for previous 24 hours

Time TempWeatherWind HumidityBarometerVisibility
7:20 PM
Sun, Nov 29
46 °FSprinkles. Passing clouds.24 mph82%29.77 "HgN/A
6:50 PM48 °FScattered showers. Passing clouds.31 mph66%29.74 "HgN/A
6:20 PM48 °FScattered showers. Passing clouds.28 mph71%29.71 "HgN/A
5:50 PM48 °FScattered showers. Passing clouds.35 mph71%29.68 "HgN/A
5:20 PM50 °FScattered showers. Passing clouds.31 mph71%29.65 "HgN/A
4:50 PM50 °FScattered showers. Passing clouds.30 mph71%29.62 "HgN/A
4:20 PM50 °FSprinkles. Passing clouds.31 mph71%29.62 "HgN/A
3:50 PM50 °FScattered showers. Scattered clouds.33 mph71%29.59 "HgN/A
3:20 PM50 °FSprinkles. Scattered clouds.35 mph76%29.56 "HgN/A
2:50 PM50 °FSprinkles. Partly sunny.37 mph76%29.56 "HgN/A
2:20 PM50 °FRain showers. Partly sunny.39 mph82%29.53 "HgN/A
1:50 PM54 °FScattered showers. Partly sunny.43 mph72%29.50 "HgN/A
1:20 PM54 °FRain showers. Partly sunny.44 mph82%29.47 "Hg5 mi
12:50 PM57 °FScattered showers. Partly sunny.39 mph63%29.45 "HgN/A
12:20 PM55 °FScattered showers. Partly sunny.31 mph72%29.42 "HgN/A
11:50 AM54 °FScattered showers. Partly sunny.26 mph72%29.45 "HgN/A
11:20 AM54 °FScattered showers. Partly sunny.28 mph77%29.45 "HgN/A
10:50 AM54 °FSprinkles. Partly sunny.30 mph72%29.45 "HgN/A
10:20 AM54 °FScattered showers. Scattered clouds.25 mph72%29.47 "HgN/A
9:50 AM52 °FScattered showers. Scattered clouds.29 mph77%29.47 "HgN/A
9:20 AM52 °FScattered showers. Scattered clouds.24 mph77%29.47 "HgN/A
8:50 AM52 °FSprinkles. Scattered clouds.23 mph77%29.50 "HgN/A
8:20 AM48 °FRain showers. Partly sunny.17 mph87%29.50 "HgN/A
7:50 AM50 °FRain showers. Passing clouds.18 mph88%29.50 "HgN/A
6:20 AM48 °FSprinkles. Passing clouds.16 mph87%29.53 "HgN/A
5:50 AM50 °FSprinkles. Passing clouds.17 mph82%29.53 "Hg5 mi
5:20 AM48 °FSprinkles. Passing clouds.14 mph82%29.53 "HgN/A
4:20 AM46 °FSprinkles. Passing clouds.10 mph87%29.56 "HgN/A
3:50 AM46 °FSprinkles. Passing clouds.14 mph93%29.56 "HgN/A
3:20 AM48 °FSprinkles. Passing clouds.22 mph82%29.56 "HgN/A
2:50 AM46 °FSprinkles. Passing clouds.20 mph87%29.56 "HgN/A
2:20 AM48 °FRain. Passing clouds.23 mph82%29.56 "Hg6 mi
1:50 AM48 °FPassing clouds.16 mph82%29.56 "HgN/A
1:20 AM48 °FClear.16 mph76%29.56 "Hg10 mi
12:50 AM48 °FClear.14 mph71%29.56 "Hg10 mi
12:20 AM48 °FPassing clouds.15 mph76%29.56 "HgN/A
11:20 PM
Sat, Nov 28
48 °FPassing clouds.12 mph76%29.53 "HgN/A
10:50 PM46 °FPassing clouds.13 mph82%29.53 "HgN/A
9:50 PM46 °FScattered showers. Passing clouds.14 mph87%29.53 "HgN/A
9:20 PM46 °FScattered showers. Passing clouds.15 mph87%29.53 "HgN/A
8:20 PM48 °FSprinkles. Passing clouds.17 mph76%29.53 "HgN/A
Weather by CustomWeather, © 2015

See weather overviewHow to use our weather pages